Regional Weather Roundup
Issued by NWS

Home | Current Version | Previous Version | Text Only | Print | Product List | Glossary Off
Versions: 1 2 3 4 5 6 7 8 9 10 11 12 13 14 15 16 17 18 19 20 21 22 23 24 25 26 27 28 29 30 31 32 33 34 35 36 37 38 39 40 41 42 43 44 45 46 47 48 49 50

000
ASUS43 KLMK 221810
RWRKY
KENTUCKY REGIONAL WEATHER ROUNDUP
NATIONAL WEATHER SERVICE LOUISVILLE KY
100 PM EST MON JAN 22 2018

NOTE "FAIR" INDICATES FEW OR NO CLOUDS BELOW 12,000 FEET
WITH NO SIGNIFICANT WEATHER AND/OR OBSTRUCTIONS TO VISIBILITY.

KYZ001>023-026-027-061>063-070>075-221900-
WESTERN AND SOUTH CENTRAL KENTUCKY

CITY           SKY/WX    TMP DP  RH WIND       PRES   REMARKS
PADUCAH        FAIR      60  49  66 S10G25    29.67F
HENDERSON      CLOUDY    55  51  86 S20       29.69F
OWENSBORO      NOT AVBL
HOPKINSVILLE   CLOUDY    54  53  97 S13       29.75F
BOWLING GREEN  LGT RAIN  54  50  86 S14       29.81F
GLASGOW        RAIN      51  51 100 S10G16    29.82F
$$

KYZ024-025-028>034-038-045-046-053-221900-
NORTH CENTRAL KENTUCKY

CITY           SKY/WX    TMP DP  RH WIND       PRES   REMARKS
LOUISVILLE/SDF LGT RAIN  55  50  83 S12G22    29.79F
LOUISVILLE/LOU CLOUDY    54  51  90 S9        29.81F
FORT KNOX      LGT RAIN  53  50  91 S15G24    29.80F FOG
$$

KYZ035>037-039>044-047>052-055>060-089>105-221900-
NORTHEAST KENTUCKY

CITY           SKY/WX    TMP DP  RH WIND       PRES   REMARKS
LEXINGTON      CLOUDY    59  45  59 S18       29.87F
COVINGTON      LGT RAIN  54  49  83 S12       29.82F
FRANKFORT      RAIN      55  46  71 S15G23    29.84F
$$

KYZ054-064>069-076>088-106>120-221900-
SOUTHEAST KENTUCKY

CITY           SKY/WX    TMP DP  RH WIND       PRES   REMARKS
JACKSON        FAIR      63  42  46 VRB6      29.90F
LONDON         CLOUDY    60  40  47 SW12G23   29.94S
SOMERSET       CLOUDY    55  43  62 S12G17    29.94F
MIDDLESBORO    PTSUNNY   58  43  57 S13G21    29.98F
MONTICELLO     LGT RAIN  58  47  66 SE7       29.93F
$$





USA.gov is the U.S. government's official web portal to all federal, state and local government web resources and services.